Probability
0 0 0 0 0 0 0 0 0 0 0 0 0 0 0 0 0 0 0 0 0 0 0 0 0 0 0 0 0 0 0 0 0 0 0 0 0 0 0 0 0 0 0
0 0 0 0 0 0 0 0 0 0 0 0 0 0 0 0 0 0 0 0 0 0 0 0 0 0 0 0 0 0 0 0 0 0 0 0 0 0 0 0 0 0 0
0 0 0 0 0 0 0 0 0 0 0 0 0 0 0 0 0 0 0 0 0 0 0 0 0 0 0 0 0 0 0 0 0 0 0 0 0 0 0 0 0 0 0
0 0 0 0 0 0 0 0 0 0 0 0 0 0 0 0 0 0 0 0 0 0 0 0 0 0 0 0 0 0 0 0 0 0 0 0 0 0 0 0 0 0 0
0 0 0 0 0 0 0 0 0 0 0 0 0 0 0 0 0 0 0 0 0 0 0 0 0 0 0 0 0 0 0 0 0 0 0 0 0 0 0 0 0 0 0
0 0 0 0 0 0 0 0 0 0 0 0 0 0 0 0 0 0 0 0 0 0 0 0 0 0 0 0 0 0 0 0 0 0 0 0 0 0 0 0 0 0 0
0 0 0 0 0 0 0 0 0 0 0 0 0 0 0 0 0 0 0 0 0 0 0 0 0 0 0 0 0 0 0 0 0 0 0 0 0 0 0 0 0 0 0
0 0 0 0 0 0 0 0 0 0 0 0 0 0 0 0 0 0 0 0 0 0 0 0 0 0 0 0 0 0 0 0 0 0 0 0 0 0 0 0 0 0 0
0 0 0 0 0 0 0 0 0 0 0 0 0 0 0 0 0 0 0 0 0 0 0 0 0 0 0 0 0 0 0 0 0 0 0 0 0 0 0 0 0 0 0
0 0 0 0 0 0 0 0 0 0 0 0 0 0 0 0 0 0 0 0 0 0 0 0 0 0 0 0 0 0 0 0 0 0 0 0 0 0 0 0 0 0 0
0 0 0 0 0 0 0 0 0 0 0 0 0 0 0 0 0 0 0 0 0 0 0 0 0 0 0 0 0 0 0 0 0 0 0 0 0 0 0 0 0 0 0
0 0 0 0 0 0 0 0 0 0 0 0 0 0 0 0 0 0 0 0 0 0 0 0 0 0 0 0 0 0 0 0 0 0 0 0 0 0 0 0 0 0 0
0 0 0 0 0 0 0 0 0 0 0 0 0 0 0 0 0 0 0 0 0 0 0 0 0 0 0 0 0 0 0 0 0 0 0 0 0 0 0 0 0 0 0
0 0 0 0 0 0 0 0 0 0 0 0 0 0 0 0 0 0 0 0 0 0 0 0 0 0 0 0 0 0 0 0 0 0 0 0 0 0 0 0 0 0 0
0 0 0 0 0 0 0 0 0 0 0 0 0 0 0 0 0 0 0 0 0 0 0 0 0 0 0 0 0 0 0 0 0 0 0 0 0 0 0 0 0 0 0
0 0 0 0 0 0 0 0 0 0 0 0 0 0 0 0 0 0 0 0 0 0 0 0 0 0 0 0 0 0 0 0 0 0 0 0 0 0 0 0 0 0 0
0 0 0 0 0 0 0 0 0 0 0 0 0 0 0 0 0 0 0 0 0 0 0 0 0 0 0 0 0 0 0 0 0 0 0 0 0 0 0 0 0 0 0
0 0 0 0 0 0 0 0 0 0 0 0 0 0 0 0 0 0 0 0 0 0 0 0 0 0 0 0 0 0 0 0 0 0 0 0 0 0 0 0 0 0 0
0 0 0 0 0 0 0 0 0 0 0 0 0 0 0 0 0 0 0 0 0 0 0 0 0 0 0 0 0 0 0 0 0 0 0 0 0 0 0 0 0 0 0
0 0 0 0 0 0 0 0 0 0 0 0 0 0 0 0 0 0 0 0 0 0 0 0 0 0 0 0 0 0 0 0 0 0 0 0 0 0 0 0 0 0 0
0 0 0 0 0 0 0 0 0 0 0 0 0 0 0 0 0 0 0 0 0 0 0 0 0 0 0 0 0 0 0 0 0 0 0 0 0 0 0 0 0 0 0
0 0 0 0 0 0 0 0 0 0 0 0 0 0 0 0 0 0 0 0 0 0 0 0 0 0 0 0 0 0 0 0 0 0 0 0 0 0 0 0 0 0 0
0 0 0 0 0 0 0 0 0 0 0 0 0 0 0 0 0 0 0 0 0 0 0 0 0 0 0 0 0 0 0 0 0 0 0 0 0 0 0 0 0 0 0
0 0 0 0 0 0 0 0 0 0 0 0 0 0 0 0 0 0 0 0 0 0 0 0 0 0 0 0 0 0 0 0 0 0 0 0 0 0 0 0 0 0 0
0 0 0 0 0 0 0 0 0 0 0 0 0 0 0 0 0 0 0 0 0 0 0 0 0 0 0 0 0 0 0 0 0 0 0 0 0 0 0 0 0 0 0
0 0 0 0 0 0 0 0 0 0 0 0 0 0 0 0 0 0 0 0 0 0 0 0 0 0 0 0 0 0 0 0 0 0 0 0 0 0 0 0 0 0 0
Wind_Speed
8 7 7 7 7 6 5 4 3 2 2 1 0 1 1 1 1 2 2 3 3 3 3 3 3 3 2 2 2 2 3 3 3 2 2 1 1 1 1 2 3 4 5
7 7 7 7 7 7 6 5 5 4 3 3 2 2 2 2 1 1 1 2 3 3 3 3 3 2 2 2 2 2 2 3 3 2 1 1 1 1 1 2 2 4 4
7 7 7 8 8 8 7 7 6 5 5 4 4 4 3 3 2 1 2 2 1 1 2 3 3 3 2 2 2 2 1 1 2 2 1 1 1 0 0 0 1 1 2
7 8 9 8 8 8 8 8 7 6 6 6 5 4 4 4 3 3 2 2 2 1 1 2 3 4 4 3 2 2 2 2 1 1 0 0 0 1 1 0 1 1 1
7 8 8 8 8 8 8 8 8 7 7 6 6 5 4 4 4 4 2 2 2 2 2 1 2 3 5 4 3 2 3 2 2 1 1 1 1 1 0 0 0 1 1
7 7 7 7 8 8 8 8 8 7 7 7 7 6 7 6 8 7 3 2 2 3 2 1 1 2 3 4 5 5 5 3 3 2 1 1 1 1 0 0 0 1 1
6 6 6 6 7 7 7 7 7 6 6 6 6 6 5 6 10 8 6 3 3 2 2 2 2 2 3 2 3 3 3 3 4 3 2 2 1 2 1 0 0 1 1
5 5 6 6 6 6 6 7 6 5 5 5 6 6 5 8 12 10 8 4 4 3 3 3 3 2 1 3 3 3 2 1 1 2 2 2 1 2 2 2 1 0 1
5 5 5 5 6 6 7 6 5 5 5 5 5 6 6 8 13 12 8 4 4 4 4 3 3 3 3 4 4 4 3 2 2 3 3 3 3 3 3 2 2 2 2
3 3 3 4 5 6 6 5 5 4 5 5 6 6 7 7 13 13 8 3 4 4 4 4 5 5 5 5 4 4 3 1 2 3 3 4 4 3 4 2 2 1 1
2 3 4 4 4 5 5 5 5 5 6 6 6 6 7 9 11 14 10 4 3 4 4 3 3 6 7 7 5 3 2 3 3 3 3 3 3 3 3 2 2 2 1
3 4 4 5 5 5 6 6 6 6 6 6 6 6 6 7 10 11 13 9 6 5 4 3 3 8 9 9 6 7 8 6 4 4 4 3 3 3 2 3 3 3 2
4 3 3 4 5 5 5 6 5 5 5 5 5 6 6 6 8 14 13 12 10 5 4 8 9 10 9 8 11 11 8 5 4 4 3 2 2 2 2 2 3 4 4
4 3 2 3 4 5 4 4 4 5 5 5 5 5 5 5 6 6 6 6 7 7 6 8 11 12 9 8 8 7 5 4 4 3 2 2 2 3 4 3 3 3 3
4 3 2 2 3 3 3 3 3 3 3 3 3 3 4 5 6 8 5 4 4 4 4 5 6 5 6 6 5 5 5 5 4 3 3 3 3 4 3 3 3 3 3
3 3 2 2 2 2 2 2 4 4 6 7 5 4 3 5 8 10 12 12 11 9 7 5 5 5 5 5 5 5 5 5 4 4 3 3 3 3 3 3 3 3 3
4 3 2 2 2 2 1 1 1 3 5 6 7 7 7 8 10 10 11 13 12 11 7 5 5 5 4 4 4 4 4 4 3 4 4 3 3 3 3 3 3 3 3
3 4 3 2 2 2 2 2 1 1 1 2 4 6 8 9 10 9 8 8 7 7 5 5 4 4 4 4 4 3 3 4 4 4 4 3 3 3 3 3 3 3 2
3 2 2 2 2 2 2 2 2 2 1 0 1 3 5 6 9 9 7 5 4 4 4 4 3 3 3 3 3 3 3 3 3 3 3 3 3 3 3 3 3 4 3
2 4 4 2 2 1 1 2 2 2 2 1 1 0 1 3 3 3 4 3 3 3 3 3 2 3 3 3 3 3 3 3 4 3 3 3 3 3 3 3 3 3 2
2 2 4 2 2 2 2 3 3 3 3 2 2 2 3 2 2 1 1 1 1 2 2 2 2 2 2 2 2 3 3 3 3 3 3 3 2 2 2 2 3 3 2
2 2 2 2 3 3 3 3 3 3 4 4 2 2 4 2 2 2 1 1 1 1 1 2 1 1 1 1 1 2 2 2 2 3 3 3 2 2 2 2 3 2 3
2 2 3 3 3 4 3 3 3 4 4 4 4 3 3 3 3 3 2 2 2 1 1 2 2 1 1 1 1 1 1 0 1 2 2 2 2 2 2 2 2 2 3
2 3 3 3 3 3 4 4 4 4 4 5 4 4 4 4 4 4 3 3 2 2 2 2 2 2 3 2 1 1 0 1 1 1 1 1 1 1 2 2 2 2 3
2 2 3 3 4 4 4 4 4 4 4 5 5 5 4 4 4 4 4 3 4 3 3 3 2 2 3 3 2 1 0 1 1 1 0 1 2 2 2 2 2 2 2
3 3 3 3 4 4 4 4 4 4 4 5 5 5 5 5 5 5 4 4 4 3 3 3 4 4 4 3 2 1 0 1 2 1 1 2 2 2 2 2 3 2 3
Wind_Direction
15 18 25 26 28 35 38 30 26 29 57 88 161 221 234 224 210 185 193 189 175 174 174 172 177 169 163 169 167 161 168 165 201 255 264 273 262 241 185 194 208 216 224
13 19 23 23 26 30 26 22 23 29 33 35 35 45 43 44 52 105 179 160 158 163 161 156 169 155 155 166 162 171 177 177 180 223 268 281 262 241 207 209 218 219 218
16 19 24 23 23 23 20 20 23 28 32 34 44 53 51 50 51 56 90 98 98 130 153 159 165 152 161 163 163 174 178 170 168 182 240 284 309 343 69 290 259 256 236
23 26 29 25 23 22 23 25 26 34 38 39 49 55 53 48 42 34 50 69 60 56 113 163 168 169 170 161 153 158 144 125 127 139 168 317 328 348 75 356 325 314 285
29 32 28 24 26 28 28 29 32 37 40 40 50 47 46 51 41 37 38 61 69 72 67 103 157 168 167 160 150 146 133 120 108 101 91 47 3 16 342 317 290 309 299
34 31 26 28 31 29 25 27 33 33 34 44 48 46 43 39 34 39 43 60 79 96 103 98 123 126 128 125 134 140 141 137 139 135 137 160 245 231 205 161 52 14 318
34 28 24 27 29 24 25 29 28 26 33 39 37 38 37 24 28 33 42 65 70 82 105 123 113 89 90 99 108 107 93 114 142 152 157 194 206 205 162 136 189 212 253
33 27 24 26 26 19 22 23 20 19 28 33 33 29 26 22 28 34 45 58 69 72 81 99 102 88 90 130 121 106 87 60 99 126 153 184 193 182 172 180 193 174 331
33 28 25 28 27 23 21 14 12 24 32 35 34 31 28 16 25 34 49 60 70 64 64 74 85 85 87 122 118 113 89 38 58 97 106 97 89 109 122 93 62 61 27
32 32 32 36 36 28 20 17 17 30 36 38 38 31 28 21 22 32 46 63 70 64 57 52 56 71 83 101 111 119 116 81 79 77 60 48 50 62 77 91 116 96 78
57 49 40 36 41 34 28 25 27 33 38 39 37 28 26 22 20 27 38 59 74 75 63 46 39 63 76 85 94 104 124 123 100 91 72 58 47 43 39 43 72 113 114
87 67 50 39 40 40 39 31 28 31 37 32 31 27 21 18 19 24 39 56 72 80 68 45 52 71 71 69 71 78 88 90 85 80 71 55 45 33 27 38 49 59 73
109 94 69 56 45 40 43 37 30 27 34 32 32 28 15 11 14 24 36 49 57 68 65 65 67 67 66 61 59 65 67 69 75 76 71 52 29 25 38 44 38 47 47
126 126 104 81 59 45 41 40 42 33 32 32 31 26 14 12 12 10 19 35 47 57 58 61 63 62 59 54 49 47 49 58 74 75 65 41 33 41 40 39 41 35 44
134 141 128 111 98 72 55 41 40 27 23 36 27 20 21 17 4 23 41 40 44 64 69 56 51 49 50 46 43 42 42 47 52 47 55 54 45 46 35 29 46 49 56
141 152 154 144 131 115 98 50 26 32 33 42 42 40 19 26 35 52 54 54 56 71 73 63 57 54 54 50 48 42 38 39 39 47 51 53 52 50 43 33 46 59 60
158 168 166 163 163 167 162 137 58 6 20 26 29 36 42 42 52 61 64 59 52 62 70 65 60 55 52 49 48 49 42 29 34 46 49 47 49 49 51 45 43 53 53
154 166 166 176 178 182 189 186 171 148 22 352 2 23 38 46 52 58 64 65 51 48 59 63 59 54 51 51 48 46 44 36 36 39 38 37 42 50 53 49 49 57 55
154 165 173 181 186 186 179 158 151 150 142 102 353 3 26 46 51 51 56 66 71 62 57 57 54 54 51 52 52 51 50 44 37 38 36 33 35 49 53 50 55 56 58
190 193 177 174 181 175 159 148 150 153 155 159 163 303 16 54 49 35 41 57 72 72 67 65 52 51 51 50 51 54 52 44 35 37 33 30 31 46 56 58 60 60 54
209 214 195 174 187 186 179 177 173 168 172 178 199 211 160 124 120 102 76 72 93 107 104 92 74 53 50 52 52 56 58 46 36 31 30 25 31 40 42 57 62 62 63
197 211 207 203 202 197 193 188 179 180 186 185 191 186 160 140 149 153 149 145 141 143 145 131 112 84 66 72 80 78 66 50 28 18 17 19 29 42 54 56 58 57 61
203 215 222 220 209 204 198 195 191 191 194 194 187 183 179 179 179 179 180 177 160 145 139 133 124 101 65 64 84 112 122 93 346 352 9 19 27 35 51 59 64 67 64
225 219 218 218 209 203 207 211 208 202 196 191 191 192 192 190 187 187 184 177 169 161 156 154 157 155 146 124 89 77 104 263 289 319 346 6 38 49 66 75 70 77 78
258 237 223 214 211 212 216 218 217 210 201 195 193 194 193 190 189 188 184 177 174 176 176 172 167 163 163 158 154 173 301 5 342 300 315 75 96 96 95 92 88 80 83
267 253 235 222 217 214 213 216 217 211 206 203 197 193 190 191 192 189 184 181 181 184 183 183 187 179 173 170 169 167 91 15 3 28 137 122 118 117 113 102 102 91 92